Location: Dodgeville, WI 53533, USA
(43.0344°N, 90.0900°W)
Time: 18:29:10
(UTC-06:00)

N. Korean satellite - Pass Details

Date: 30 January 2021
Orbit: 451 x 502 km, 97.2° (Epoch: 06 March)

Event Time Altitude Azimuth Distance (km) Brightness Sun altitude
Rises 05:54:37 0° 4° (N) 2,490 10.1 -15.3°
Reaches altitude 10° 05:56:45 10° 357° (N) 1,605 9.1 -14.9°
Maximum altitude 05:59:58 40° 287° (WNW) 690 6.8 -14.3°
Drops below altitude 10° 06:03:09 10° 217° (SW) 1,581 8.9 -13.7°
Sets 06:05:14 0° 209° (SSW) 2,447 10.0 -13.4°
